Zurück zum Katalog

STARLINK-34995

AktivKommunikationSSO
NORAD 65285·PAYLOAD·🇺🇸 United States

Gestartet Aug 22, 2025 von Vandenberg Space Force Base

Loading…

Nächste Überflüge (nächste 24 Stunden)

TLE

AktuellSource: CelesTrak SupGP

Epoche: Sep 14, 2026, 20:57 UTC

1 65285C 25184N   26257.87340278 -.00012656  00000+0 -39288-3 0  2578
2 65285  97.2838 305.9578 0001071  96.0360 294.9714 15.33446011    10

Verfolge STARLINK-34995 in Echtzeit mit AllMySat

Download on the App Store